CW6020 Weather Reports


time (UTC)temp
F
wind
direction
speed
knots
gust
knots
rain 1hr
in
rain 24hr
in
rain mn
in
humidity
%
barometer
mb
20260507142021 67 240 3.5 6.1 0.00 0.00 0.00 69 1009.7
20260507141020 67 213 3.5 5.2 0.00 0.00 0.00 70 1009.8
20260507140021 67 228 3.5 7.0 0.00 0.00 0.00 68 1009.9
20260507135021 68 220 4.3 6.1 0.00 0.00 0.00 65 1010.0
20260507134021 68 205 3.5 5.2 0.00 0.00 0.00 63 1010.2
20260507133021 70 210 4.3 7.0 0.00 0.00 0.00 64 1010.1
20260507132021 67 238 4.3 7.0 0.00 0.00 0.00 70 1010.3
20260507131026 67 201 3.5 8.7 0.00 0.00 0.00 71 1010.4
20260507130021 68 225 4.3 6.1 0.00 0.00 0.00 69 1010.5
20260507125021 67 222 3.5 6.1 0.00 0.00 0.00 69 1010.5
20260507124021 69 214 3.5 6.1 0.00 0.00 0.00 68 1010.6
20260507123021 68 229 3.5 7.0 0.00 0.00 0.00 69 1010.6
20260507122021 67 254 3.5 6.1 0.00 0.00 0.00 72 1010.7
20260507121021 67 226 2.6 7.0 0.00 0.00 0.00 72 1010.8
20260507120041 68 223 3.5 7.0 0.00 0.00 0.00 72 1011.0
20260507115041 68 240 3.5 7.0 0.00 0.00 0.00 69 1011.1
20260507114021 68 229 4.3 7.0 0.00 0.00 0.00 68 1011.0
20260507113021 68 230 2.6 5.2 0.00 0.00 0.00 68 1011.2
20260507112021 67 214 3.5 5.2 0.00 0.00 0.00 70 1011.2
20260507111021 67 233 2.6 5.2 0.00 0.00 0.00 69 1011.4
20260507110041 67 202 2.6 6.1 0.00 0.00 0.00 68 1011.4
20260507105020 67 253 3.5 5.2 0.00 0.00 0.00 68 1011.4
20260507104021 67 216 2.6 5.2 0.00 0.00 0.00 68 1011.5
20260507103021 67 245 2.6 6.1 0.00 0.00 0.00 68 1011.5
20260507102021 66 173 3.5 7.0 0.00 0.00 0.00 70 1011.5
20260507101021 66 182 2.6 5.2 0.00 0.00 0.00 71 1011.5
20260507100021 66 152 1.7 4.3 0.00 0.00 0.00 74 1011.6
20260507095100 66 246 1.7 4.3 0.00 0.00 0.00 74 1011.7
20260507094021 65 197 1.7 5.2 0.00 0.00 0.00 76 1011.7
20260507093020 65 295 2.6 8.7 0.00 0.00 0.00 74 1011.8
20260507092020 65 197 2.6 4.3 0.00 0.00 0.00 73 1011.7
20260507091020 65 263 1.7 5.2 0.00 0.00 0.00 76 1011.8
20260507090021 64 294 4.3 8.7 0.00 0.00 0.00 76 1011.8
20260507085042 64 330 3.5 7.8 0.00 0.00 0.00 75 1011.9
20260507084041 63 318 3.5 8.7 0.00 0.00 0.00 77 1011.8
20260507083022 63 329 4.3 11.3 0.00 0.00 0.00 77 1011.7
20260507082021 63 313 2.6 9.6 0.00 0.00 0.00 78 1011.5
20260507081021 63 337 5.2 11.3 0.00 0.00 0.00 79 1011.4
20260507080041 64 314 4.3 10.4 0.00 0.00 0.00 77 1011.4
20260507075021 63 312 2.6 10.4 0.00 0.00 0.00 78 1011.4
20260507074021 63 308 3.5 11.3 0.00 0.00 0.00 79 1011.3
20260507073021 62 319 4.3 10.4 0.00 0.00 0.00 79 1011.1
20260507072101 61 332 4.3 10.4 0.00 0.00 0.00 80 1011.2
20260507071021 61 335 3.5 8.7 0.00 0.00 0.00 82 1011.2
20260507070021 60 335 3.5 8.7 0.00 0.00 0.00 83 1011.3
20260507065021 60 360 3.5 7.0 0.00 0.00 0.00 84 1011.4
20260507064021 60 346 5.2 8.7 0.00 0.00 0.00 84 1011.3
20260507063021 60 346 3.5 7.8 0.00 0.00 0.00 84 1011.3
20260507062021 59 2 2.6 7.8 0.00 0.00 0.00 85 1011.2
20260507061020 59 345 3.5 8.7 0.00 0.00 0.00 85 1011.2
20260507060021 59 349 4.3 8.7 0.00 0.00 0.00 85 1011.2
20260507055020 59 342 4.3 7.8 0.00 0.00 0.00 85 1010.9
20260507054020 59 345 2.6 8.7 0.00 0.00 0.00 86 1011.0
20260507053100 59 345 4.3 7.8 0.00 0.00 0.00 86 1010.8
20260507052020 59 347 4.3 9.6 0.00 0.00 0.00 86 1010.7
20260507051020 59 345 5.2 8.7 0.00 0.00 0.00 86 1010.7
20260507050021 59 330 3.5 9.6 0.00 0.00 0.00 86 1010.7
20260507045020 59 337 5.2 11.3 0.00 0.00 0.00 86 1010.5
20260507044020 59 345 6.1 11.3 0.00 0.00 0.00 86 1010.5
20260507043020 59 344 7.0 12.2 0.00 0.00 0.00 86 1010.5
20260507042020 59 348 5.2 10.4 0.00 0.00 0.00 85 1010.5
20260507041021 59 349 7.0 13.0 0.00 0.00 0.00 85 1010.5
20260507040021 59 346 7.8 12.2 0.00 0.00 0.00 85 1010.4
20260507035021 59 345 7.0 12.2 0.00 0.00 0.00 85 1010.5
20260507034101 59 342 5.2 11.3 0.00 0.00 0.00 85 1010.6
20260507033021 59 346 5.2 9.6 0.00 0.00 0.00 85 1010.7
20260507032041 59 341 4.3 7.8 0.00 0.00 0.00 85 1010.7
20260507031021 59 331 4.3 8.7 0.00 0.00 0.00 84 1010.8
20260507030021 60 348 5.2 9.6 0.00 0.00 0.00 84 1010.9
20260507025100 59 352 4.3 8.7 0.00 0.00 0.00 85 1010.9
20260507024021 60 349 3.5 9.6 0.00 0.00 0.00 84 1011.1
20260507023020 60 340 5.2 9.6 0.00 0.00 0.00 84 1010.9
20260507022021 59 346 3.5 6.1 0.00 0.00 0.00 85 1010.9
20260507021020 59 336 1.7 7.0 0.00 0.00 0.00 84 1010.9
20260507020021 59 343 5.2 8.7 0.00 0.00 0.00 84 1010.9
20260507015021 59 347 3.5 7.8 0.00 0.00 0.00 84 1010.9
20260507014021 59 351 5.2 10.4 0.00 0.00 0.00 84 1010.8
20260507013021 57 346 4.3 7.0 0.00 0.00 0.00 89 1011.0
20260507012021 57 290 0.9 4.3 0.00 0.00 0.00 90 1010.9
20260507011021 56 296 1.7 2.6 0.00 0.00 0.00 89 1011.1
20260507010041 56 118 0.9 1.7 0.00 0.00 0.00 89 1011.1
20260507005021 56 294 0.9 1.7 0.00 0.00 0.00 88 1011.0
20260507004021 56 315 0.0 2.6 0.00 0.00 0.00 89 1011.0
20260507003021 56 86 0.0 1.7 0.00 0.00 0.00 89 1011.2
20260507002021 56 322 0.9 2.6 0.00 0.00 0.00 89 1011.1
20260507001021 55 127 0.0 0.9 0.00 0.00 0.00 88 1011.3
20260507000041 55 280 0.0 1.7 0.00 0.00 0.00 88 1011.4
20260506235021 56 132 0.9 1.7 0.00 0.00 0.00 88 1011.5
20260506234041 56 239 0.0 0.9 0.00 0.00 0.00 88 1011.6
20260506233021 56 337 0.0 0.9 0.00 0.00 0.00 89 1011.7
20260506232041 55 68 0.9 1.7 0.00 0.00 0.00 88 1011.7
20260506231021 55 296 0.0 1.7 0.00 0.00 0.00 89 1011.6
20260506230020 55 0.0 0.9 0.00 0.00 0.00 88 1011.7
20260506225021 55 132 0.0 0.9 0.00 0.00 0.00 88 1011.7
20260506224021 55 0.0 0.9 0.00 0.00 0.00 89 1011.7
20260506223020 55 133 0.0 1.7 0.00 0.00 0.00 89 1011.9
20260506222020 55 0.0 0.0 0.00 0.00 0.00 87 1011.7
20260506221041 55 338 0.0 0.9 0.00 0.00 0.00 87 1011.9
20260506220020 55 0.0 0.9 0.00 0.00 0.00 87 1012.0
20260506215021 55 0.0 0.0 0.00 0.00 0.00 87 1011.9
20260506214021 55 0.0 0.9 0.00 0.00 0.00 86 1011.9
20260506213020 55 0.0 0.9 0.00 0.00 0.00 86 1011.8
20260506212040 56 0.0 0.0 0.00 0.00 0.00 86 1011.7
20260506211020 55 0.0 0.9 0.00 0.00 0.00 85 1011.7
20260506210021 56 174 0.0 1.7 0.00 0.00 0.00 84 1011.6
20260506205021 56 289 0.0 1.7 0.00 0.00 0.00 85 1011.4
20260506204021 56 20 0.0 0.9 0.00 0.00 0.00 84 1011.3
20260506203041 57 176 0.0 0.9 0.00 0.00 0.00 82 1011.2
20260506202021 58 217 0.0 1.7 0.00 0.00 0.00 82 1011.1
20260506201021 57 0.0 1.7 0.00 0.00 0.00 81 1011.2
20260506200022 58 0.0 0.9 0.00 0.00 0.00 79 1010.9
20260506195041 59 0.0 0.9 0.00 0.00 0.00 78 1010.8
20260506194021 59 101 0.0 1.7 0.00 0.00 0.00 77 1010.7
20260506193021 60 19 0.0 1.7 0.00 0.00 0.00 76 1010.7
20260506192021 60 145 0.0 1.7 0.00 0.00 0.00 75 1010.6
20260506191021 61 0.0 1.7 0.00 0.00 0.00 75 1010.6
20260506190021 61 156 0.0 1.7 0.00 0.00 0.00 74 1010.7
20260506185021 61 0.0 0.9 0.00 0.00 0.00 72 1010.7
20260506184021 62 210 0.0 1.7 0.00 0.00 0.00 71 1010.7
20260506183021 62 102 0.9 1.7 0.00 0.00 0.00 70 1010.5
20260506182021 63 151 0.9 2.6 0.00 0.00 0.00 69 1010.5
20260506181041 63 189 0.9 1.7 0.00 0.00 0.00 68 1010.6
20260506180021 63 161 0.9 3.5 0.00 0.00 0.00 67 1010.5
20260506175021 64 282 1.7 2.6 0.00 0.00 0.00 66 1010.4
20260506174101 65 307 2.6 4.3 0.00 0.00 0.00 64 1010.3
20260506173021 64 233 0.9 2.6 0.00 0.00 0.00 66 1010.3
20260506172021 65 179 1.7 3.5 0.00 0.00 0.00 63 1010.3
20260506171041 65 188 1.7 4.3 0.00 0.00 0.00 64 1010.4
20260506170021 64 236 0.9 2.6 0.00 0.00 0.00 65 1010.5
20260506165021 66 234 1.7 2.6 0.00 0.00 0.00 64 1010.5
20260506164021 66 273 3.5 5.2 0.00 0.00 0.00 64 1010.5
20260506163021 66 225 2.6 5.2 0.00 0.00 0.00 65 1010.5
20260506162021 68 263 1.7 6.1 0.00 0.00 0.00 61 1010.5
20260506161041 68 247 1.7 4.3 0.00 0.00 0.00 61 1010.4
20260506160021 70 260 2.6 5.2 0.00 0.00 0.00 59 1010.3
20260506155021 68 282 2.6 6.1 0.00 0.00 0.00 62 1010.4
20260506154020 68 213 2.6 4.3 0.00 0.00 0.00 63 1010.4
20260506153021 68 232 2.6 7.0 0.00 0.00 0.00 64 1010.4
20260506152021 67 265 2.6 6.1 0.00 0.00 0.00 64 1010.4
20260506151020 65 264 2.6 4.3 0.00 0.00 0.00 65 1010.4
20260506150021 64 237 1.7 4.3 0.00 0.00 0.00 65 1010.4
20260506145021 65 265 2.6 6.1 0.00 0.00 0.00 64 1010.7
20260506144021 64 265 2.6 7.8 0.00 0.00 0.00 66 1010.4
20260506143020 64 244 2.6 5.2 0.00 0.00 0.00 66 1010.8